RH
24 22 20 19 17 17 15 15 14 14 14 13 13 13 12 12 11 10 9 9 8 8 7 7 6 5 4 4 6 12 18 23 27 28 32 39 34 27 30 30 22 15 11 9 7 7 7 8 10 12 14 15 16 16 17 16 16 15 14 12 9 8 7 7 7 6 6 6 5 5 5 4 4 4 4 4 4 3 3 3 4 5 7 7 8 8 7 6
27 26 24 22 21 19 18 17 16 15 15 15 15 14 14 13 12 12 11 10 10 9 9 9 8 7 6 5 4 5 9 16 22 28 35 38 31 27 32 34 27 18 14 12 9 9 9 9 11 13 15 16 17 17 17 17 17 16 14 11 8 7 7 7 7 6 6 5 5 5 5 5 4 4 4 4 4 4 4 3 4 6 7 7 7 7 6 6
29 28 27 26 24 23 21 20 19 18 17 17 16 16 16 15 14 13 13 12 11 11 11 10 10 9 8 6 5 4 5 8 15 29 37 35 32 31 33 37 33 23 17 14 11 10 10 11 12 14 15 16 17 18 17 17 17 15 13 9 6 7 8 7 6 6 6 6 5 5 5 5 5 4 4 4 4 4 4 4 6 6 7 7 7 7 6 5
33 31 29 28 27 26 25 24 22 21 20 19 18 18 17 17 16 15 15 14 13 12 12 12 11 10 9 8 7 5 5 4 11 28 36 34 35 34 33 37 37 30 21 16 14 12 12 13 14 15 16 17 18 18 18 18 17 15 12 7 6 8 9 7 7 6 6 6 6 5 5 5 4 4 4 4 4 4 4 5 6 6 6 7 7 7 6 5
38 36 33 30 29 29 28 28 26 25 24 22 22 21 20 19 18 18 17 16 15 15 14 13 12 12 11 10 9 7 6 4 8 22 30 33 35 36 34 35 38 37 28 19 16 15 13 14 15 16 17 18 18 19 19 19 18 15 10 8 8 8 8 7 7 6 7 6 6 6 5 5 5 5 4 4 4 4 4 5 7 7 7 7 7 7 6 4
42 40 38 35 33 31 31 30 30 29 28 27 26 24 23 22 21 20 20 19 18 17 16 16 14 13 12 11 10 8 7 5 7 16 24 30 34 36 35 34 37 40 36 26 18 16 15 14 15 16 17 18 19 19 18 18 18 14 9 9 10 9 8 7 6 6 7 6 6 6 5 5 5 5 4 4 3 3 5 6 8 7 7 7 7 6 5 4
45 43 42 40 37 35 33 32 32 31 31 30 29 28 27 26 25 24 23 22 21 21 19 18 16 15 14 12 11 10 8 7 9 12 17 25 32 35 35 35 36 38 39 33 23 18 17 16 16 16 17 17 18 18 17 18 17 11 7 9 9 9 8 7 7 6 7 7 6 6 6 6 5 5 5 4 3 4 6 7 8 8 7 7 6 5 4 4
50 48 46 43 41 39 36 35 34 33 33 33 32 32 31 29 29 27 27 26 25 24 23 21 19 17 15 13 12 11 9 10 10 7 11 22 31 35 35 34 36 36 37 36 30 22 18 18 17 17 17 16 17 17 18 19 17 9 5 6 7 7 7 6 7 7 7 7 7 7 6 6 5 5 4 3 4 6 6 5 7 7 6 5 4 4 4 4
53 52 51 48 45 42 40 38 37 36 36 35 35 35 34 33 32 31 30 30 29 28 27 25 22 20 17 15 13 12 11 12 9 6 11 20 27 34 36 34 34 35 35 36 35 29 22 19 18 17 16 15 16 16 19 20 15 7 4 6 5 5 5 6 7 7 7 7 7 6 6 5 5 4 4 5 5 5 4 4 5 6 5 5 4 4 4 5
54 54 54 52 50 47 44 42 40 39 39 39 39 38 37 36 35 35 34 34 33 32 30 28 25 23 20 17 15 13 13 12 10 8 10 15 23 32 36 34 33 33 34 35 35 31 24 19 18 17 16 16 17 17 19 19 14 8 7 9 8 6 6 7 6 6 6 6 6 6 4 4 3 3 6 8 6 3 3 4 4 5 5 5 5 5 4 6
54 54 55 54 52 51 49 47 45 44 43 43 42 41 41 40 39 38 38 38 36 35 33 31 28 25 22 19 16 15 14 12 10 9 9 11 19 30 35 35 34 32 33 32 30 28 24 21 20 19 17 17 17 18 19 19 14 10 11 12 10 8 7 7 6 5 6 5 6 5 4 4 3 4 7 8 5 3 3 3 4 4 5 5 5 5 5 7
53 54 55 55 54 52 51 50 49 48 47 46 46 45 44 44 43 42 42 41 39 38 35 32 30 27 24 20 18 16 14 12 11 9 8 11 18 29 34 35 33 31 32 30 26 25 25 23 22 20 18 18 17 17 19 18 13 10 11 12 9 8 7 7 6 5 5 5 5 4 3 3 3 5 7 6 4 4 4 4 4 5 6 6 5 5 7 9
51 52 53 54 54 54 52 51 50 49 48 47 47 46 46 45 45 44 43 42 40 38 35 32 30 27 25 22 18 16 14 12 11 10 9 11 18 28 34 34 31 28 28 26 24 25 26 25 23 20 19 18 16 17 18 18 14 10 10 10 9 8 7 6 5 4 4 4 4 4 4 4 4 5 5 5 4 4 4 4 4 4 5 5 5 6 8 10
48 49 50 50 51 51 52 51 49 48 47 45 44 43 42 41 41 40 39 38 37 34 33 31 29 27 25 21 16 15 14 12 11 11 11 12 19 27 32 33 31 27 24 23 23 24 25 24 22 21 21 17 15 17 18 15 12 10 10 10 9 8 6 5 4 3 4 3 3 4 3 5 6 6 4 5 4 3 4 4 4 5 5 5 6 8 10 11
36 37 39 39 40 41 42 42 41 40 38 36 34 32 32 32 32 31 30 29 29 28 28 27 25 23 21 17 15 14 12 12 13 13 12 14 19 27 30 31 32 30 25 23 25 26 25 24 22 20 20 17 16 16 16 14 10 8 10 8 7 7 5 5 4 3 4 3 4 4 3 7 9 7 4 5 4 3 4 4 4 5 6 7 9 11 12 12
19 20 21 21 23 23 24 24 24 23 22 20 19 19 20 21 20 19 19 19 19 19 19 18 18 17 16 14 12 13 11 13 16 14 12 15 20 26 29 29 31 31 27 25 25 26 26 26 23 19 17 16 15 14 14 13 9 8 9 7 5 5 4 4 4 3 4 3 4 4 4 7 10 7 5 5 5 5 5 5 6 7 8 10 11 12 12 12
10 10 10 9 10 9 10 10 10 10 9 9 8 9 10 10 10 10 11 11 11 11 11 11 11 11 11 11 13 15 13 15 17 13 14 18 21 26 28 27 28 29 28 27 25 25 26 27 27 24 20 15 12 12 14 14 10 8 8 6 4 4 4 4 4 4 4 4 4 4 4 8 8 6 6 6 6 8 8 7 8 9 10 11 12 13 13 13
5 5 5 5 4 4 5 4 4 4 4 4 4 4 4 4 5 5 5 6 7 6 7 7 8 10 11 14 18 16 15 18 17 15 18 20 20 24 27 25 25 29 30 27 24 23 25 28 29 29 23 16 12 11 14 15 10 6 5 4 4 4 4 4 5 5 4 4 4 4 5 8 9 7 7 7 8 10 10 10 11 11 12 12 13 13 13 13
3 3 3 3 3 3 2 3 3 2 3 3 3 3 3 3 3 3 4 4 4 5 8 10 11 13 16 21 22 18 19 22 19 19 20 20 21 24 25 23 22 26 29 27 23 21 25 30 31 32 27 19 14 11 11 11 7 4 4 4 4 4 4 5 6 5 5 5 5 5 6 9 10 7 7 8 9 11 11 12 12 13 14 14 14 14 13 13
3 3 3 2 3 3 2 3 2 3 4 2 3 6 4 4 4 4 4 4 8 13 14 16 19 22 25 27 25 23 26 24 22 23 22 21 22 22 22 21 20 22 26 25 21 19 24 29 30 29 24 16 12 8 6 6 4 4 4 4 4 3 6 7 6 6 6 6 6 5 6 8 9 7 8 11 12 13 14 14 13 13 14 14 14 13 13 13
5 5 5 5 4 4 5 7 9 14 16 12 16 19 12 11 15 15 14 17 23 27 27 29 32 34 35 33 29 28 28 25 25 24 22 22 22 20 19 18 16 18 23 22 19 21 24 26 25 20 12 9 7 5 4 4 4 3 3 4 3 5 12 11 8 8 7 7 7 6 7 7 8 8 11 13 14 15 14 14 15 15 14 14 13 13 14 15
9 8 9 12 16 19 24 30 37 43 43 39 39 39 36 37 41 40 38 42 46 45 45 46 43 41 40 36 33 31 29 26 26 24 21 21 19 17 16 14 12 13 18 21 19 23 27 25 21 13 6 5 5 4 5 3 3 3 3 4 3 10 20 19 13 10 8 9 9 7 8 8 9 12 14 14 15 16 15 15 15 14 14 14 13 13 15 17
14 19 26 35 43 48 53 60 67 73 76 75 67 61 63 63 66 68 62 61 66 62 57 54 47 42 38 35 33 31 29 27 25 22 21 18 15 14 13 11 11 11 15 18 17 20 26 25 18 11 6 5 4 4 4 3 3 3 2 4 6 15 25 24 17 13 10 10 11 10 10 14 18 18 17 16 17 18 16 14 13 13 13 13 13 15 18 18
23 35 49 58 65 67 69 76 82 83 86 87 81 75 76 76 80 85 78 72 72 65 58 53 45 40 37 36 34 30 30 30 26 23 20 16 14 13 13 13 13 12 12 15 15 15 18 19 16 12 8 7 6 5 4 3 3 3 3 4 8 17 24 23 17 15 13 11 12 11 16 27 30 23 19 19 19 19 16 13 13 13 12 14 17 19 19 16
35 43 54 60 66 69 72 81 88 87 76 71 76 78 79 83 84 84 79 72 67 60 53 48 42 42 43 38 33 32 34 32 29 26 22 18 17 16 17 17 15 13 13 15 14 13 16 17 16 13 10 8 7 5 4 4 3 3 4 6 12 18 21 19 16 15 15 14 14 14 22 36 35 25 21 20 20 19 16 14 13 12 14 19 23 21 17 14
45 48 53 53 56 60 65 75 84 82 70 67 80 88 85 87 85 81 75 66 59 55 52 47 45 51 49 38 36 37 36 34 32 30 26 23 23 22 22 20 17 14 15 17 16 14 18 19 18 15 11 9 8 6 5 4 4 4 6 9 14 18 19 17 15 15 16 15 15 17 25 38 38 26 20 19 20 20 17 15 13 13 18 23 23 19 16 14
51 56 59 53 47 48 59 75 81 74 69 77 93 98 94 93 91 86 77 66 59 57 54 50 52 57 50 43 45 40 36 37 33 30 31 30 27 25 26 24 20 16 17 21 20 17 20 20 18 16 12 10 8 7 6 5 7 9 10 13 15 18 17 16 15 14 14 13 13 15 20 33 39 29 18 15 18 20 17 14 13 13 17 21 21 19 17 14
53 61 65 61 49 43 52 69 82 80 78 88 99 101 98 99 98 89 75 66 62 60 59 59 61 63 55 52 51 42 43 46 37 33 36 36 32 27 27 26 24 22 21 23 23 19 19 19 17 16 14 12 11 10 10 10 11 12 12 13 14 16 16 17 16 13 12 10 11 12 14 23 31 26 18 15 16 20 20 17 17 15 14 17 20 19 16 15
50 57 65 71 64 54 49 57 77 90 93 96 100 101 101 101 98 85 72 68 66 61 62 67 68 67 63 61 55 49 54 56 51 52 48 39 35 31 31 31 29 29 26 25 24 20 19 18 15 15 14 12 12 11 10 10 11 10 10 10 12 15 16 19 21 15 11 10 11 15 16 20 25 22 17 16 18 21 23 23 23 19 16 16 17 16 14 16
49 54 63 75 79 71 60 61 78 93 99 100 101 101 101 100 94 81 72 73 76 72 68 72 77 78 78 73 64 59 61 62 64 68 60 49 45 40 40 41 37 33 29 27 27 24 22 20 16 13 12 12 11 9 8 9 10 9 9 9 9 11 13 20 23 17 11 9 12 20 22 22 25 22 18 18 20 23 27 31 30 25 20 18 17 14 14 17
59 66 73 82 87 80 70 75 86 93 98 101 101 98 97 101 95 80 73 72 77 82 79 80 85 89 91 84 74 68 67 68 70 69 63 57 55 50 47 46 41 37 33 31 31 29 26 22 18 15 14 14 12 10 11 10 9 10 9 9 9 9 11 18 22 17 12 10 13 22 26 24 23 19 18 23 25 26 30 34 37 34 28 25 23 20 18 21
69 78 87 90 89 80 77 88 93 94 99 99 96 94 94 98 91 79 75 74 79 88 91 91 91 94 99 92 81 77 75 74 71 68 65 59 56 54 51 48 43 39 35 35 36 34 30 26 24 22 21 19 17 16 16 14 12 11 11 11 10 9 9 12 15 13 10 11 14 21 25 23 19 15 20 28 29 28 31 36 43 43 38 36 35 28 20 21
77 85 91 92 86 80 83 93 95 95 99 95 94 96 92 89 89 86 82 77 79 89 95 98 98 99 102 93 85 85 84 81 76 72 70 66 63 61 58 55 50 45 41 39 38 36 33 31 28 27 26 24 22 22 21 18 17 16 15 15 13 13 11 10 11 11 11 13 14 17 20 20 16 14 20 24 23 25 31 37 44 47 46 46 47 45 40 39
83 87 89 88 85 86 90 96 97 96 97 93 95 99 94 91 97 97 89 79 78 86 94 98 97 98 100 94 87 85 82 81 82 80 77 73 69 65 62 58 55 52 47 44 40 37 35 33 31 29 28 26 25 24 23 23 22 21 20 19 18 17 16 15 14 14 14 14 15 15 15 16 15 15 19 22 24 25 28 35 43 49 52 50 52 57 55 51
85 87 90 92 93 95 97 99 99 96 95 94 95 98 98 98 100 94 91 89 82 84 94 98 92 89 92 90 86 84 81 81 84 82 80 76 72 68 64 59 57 54 51 47 43 39 37 35 33 31 29 28 27 26 26 25 24 23 22 22 21 20 20 19 18 17 17 16 15 16 15 14 14 15 18 23 28 31 34 41 47 55 59 47 43 51 45 35
89 92 97 99 100 101 100 99 98 95 95 97 97 100 100 98 95 91 95 96 85 85 96 101 93 83 81 80 78 80 82 81 82 82 81 79 74 70 65 60 57 53 51 48 45 42 39 35 35 33 30 30 30 31 30 29 29 28 23 20 21 23 24 23 20 18 18 17 16 15 14 13 12 13 17 21 32 42 47 52 56 62 62 39 26 36 35 25
95 99 101 101 102 103 100 98 97 95 96 98 99 101 99 98 97 97 100 95 85 89 99 102 96 81 74 74 72 75 76 75 76 77 77 75 70 65 61 57 54 51 49 48 46 45 41 37 36 34 32 31 31 33 33 31 32 31 29 27 27 27 26 24 23 20 17 18 18 16 13 12 11 12 16 20 32 45 51 57 59 57 50 32 21 26 29 28
99 100 101 102 103 103 99 97 96 96 97 98 100 99 96 98 100 101 100 90 85 95 100 99 96 84 77 75 71 71 72 69 69 70 69 68 65 61 57 52 50 47 45 45 45 45 43 40 38 35 34 34 31 32 32 30 30 33 41 45 37 30 26 22 21 19 17 18 18 18 16 14 14 14 16 20 27 36 47 55 53 43 34 29 28 30 32 37
100 101 101 102 104 101 96 93 93 95 97 98 100 99 98 99 100 102 96 85 88 100 100 97 95 86 80 77 72 69 67 64 64 63 62 61 62 61 54 50 48 43 40 40 40 43 43 42 43 39 37 38 33 32 32 31 29 33 44 52 47 39 32 29 30 29 28 27 25 25 24 21 21 21 21 22 24 28 37 42 38 33 31 29 30 32 32 35
102 102 101 103 103 96 91 92 94 96 98 99 99 101 101 99 100 101 92 85 93 102 99 99 98 90 80 77 73 66 61 61 60 60 60 57 60 61 52 46 45 40 37 35 33 38 38 42 51 47 39 42 41 35 36 37 38 37 39 47 52 49 44 43 46 44 41 40 36 30 25 23 24 28 29 27 24 24 29 32 31 32 32 32 35 35 31 29
104 103 102 102 99 91 91 96 98 99 100 101 101 101 101 98 99 101 94 90 98 101 99 100 101 96 86 78 74 67 60 60 61 64 67 60 59 62 55 47 45 40 35 32 30 34 34 41 59 58 45 50 55 48 45 51 56 52 46 49 52 51 54 60 60 51 43 42 39 33 33 30 25 27 32 31 26 25 27 32 35 33 30 32 37 34 30 29
104 103 102 100 94 89 93 99 101 102 101 101 101 101 100 99 100 100 94 94 100 102 101 100 100 101 96 89 83 72 62 61 63 68 73 66 63 68 63 51 47 43 37 32 29 31 35 45 61 63 53 54 65 68 63 66 73 67 59 62 63 56 55 63 67 62 54 48 40 35 40 41 35 30 30 31 30 33 36 38 37 31 28 31 33 29 26 28
103 102 101 98 91 87 92 97 100 102 101 99 98 97 98 100 100 96 90 93 101 102 101 100 101 102 102 101 95 82 70 66 67 70 73 73 73 78 74 59 49 45 39 35 31 30 38 47 54 59 60 60 71 81 77 73 80 83 74 70 75 77 71 69 75 78 74 64 53 48 47 45 43 39 34 33 34 35 38 39 35 31 34 37 34 30 29 31
102 102 100 95 89 89 95 100 101 101 101 97 93 94 98 100 99 96 92 95 100 102 100 100 102 103 103 103 101 92 81 76 77 77 76 80 84 87 87 75 61 55 48 43 40 35 37 44 46 54 63 63 67 75 76 73 80 94 95 84 83 94 94 89 86 85 84 76 64 63 61 54 51 50 47 47 45 41 40 37 36 38 42 41 36 32 33 34
100 101 101 97 93 92 98 103 101 100 100 96 91 95 100 99 100 100 98 98 100 101 101 99 98 100 102 102 101 96 89 87 91 89 84 88 90 90 95 92 83 79 71 62 58 49 42 42 41 46 55 54 53 60 68 73 78 90 100 98 94 98 100 97 85 73 75 79 74 70 67 62 58 59 63 64 60 56 52 44 44 50 52 48 41 37 36 37
100 101 101 101 98 94 97 102 101 100 100 96 92 97 101 100 100 100 96 97 100 100 99 100 97 95 96 97 97 97 94 92 96 96 90 90 89 86 91 95 91 91 91 86 80 68 56 50 43 43 53 60 62 65 66 67 75 84 89 92 96 99 99 96 86 73 68 75 81 77 69 67 69 72 77 76 70 65 58 51 54 61 63 61 54 49 48 46
100 100 99 101 100 96 99 101 100 101 100 94 94 99 102 100 101 101 93 93 101 100 98 100 99 94 91 86 85 92 97 94 92 92 90 88 86 81 80 83 85 89 96 98 96 86 72 60 50 49 61 71 72 70 65 66 80 92 91 86 86 87 85 83 88 89 77 69 76 77 70 72 81 85 86 83 80 75 63 56 61 65 65 62 58 57 57 54
99 100 101 103 101 100 102 101 101 102 97 92 97 102 102 101 101 101 96 94 100 102 100 99 95 88 86 82 78 82 91 93 87 82 82 82 81 76 72 71 74 80 88 92 95 97 89 75 62 55 63 77 84 83 78 77 85 97 101 98 92 88 82 77 84 90 81 70 70 73 72 76 83 88 88 85 84 78 60 51 58 65 63 55 47 49 53 53
99 100 100 101 100 101 103 101 99 96 90 91 98 99 99 101 100 101 102 99 99 101 100 96 87 76 73 76 78 79 82 85 82 74 72 71 69 67 65 64 64 67 73 76 80 88 92 90 83 71 67 75 87 94 94 89 83 80 83 90 95 98 95 91 95 97 91 85 81 77 76 78 81 86 87 84 80 72 55 44 49 60 59 46 37 38 43 48
99 100 100 99 100 100 100 96 89 83 83 91 98 96 96 101 100 99 101 101 101 103 100 96 89 81 72 68 72 77 77 75 74 69 64 60 59 59 59 59 60 61 64 67 67 68 75 85 92 90 86 83 83 86 90 89 83 76 70 69 73 83 90 93 94 94 94 94 93 89 85 83 85 88 88 84 77 68 58 50 48 51 48 39 33 32 38 53
99 100 100 99 99 99 98 96 91 87 89 97 100 96 94 98 100 99 99 99 101 102 100 96 93 90 84 72 66 67 67 65 64 60 55 53 54 56 58 59 62 65 67 70 68 62 61 69 78 86 93 96 93 91 90 89 89 87 85 79 74 77 83 83 77 76 85 90 84 85 91 93 93 93 90 88 82 73 68 62 56 52 49 46 42 34 36 58
99 99 100 100 100 99 99 101 99 97 99 102 100 93 90 97 100 99 99 100 100 101 98 86 73 68 75 79 73 64 60 57 56 52 48 47 48 53 60 64 66 70 73 77 78 71 63 60 60 62 68 74 79 84 88 91 92 89 85 84 84 84 84 80 71 71 87 94 81 80 94 101 98 95 93 90 83 76 75 72 66 64 62 62 64 55 46 56
Wind_Speed
49 49 49 49 49 48 48 48 47 47 46 46 45 45 44 43 43 42 41 40 39 39 38 37 37 37 37 39 41 43 44 44 43 40 38 38 40 39 38 36 32 31 33 33 33 33 32 32 32 30 30 29 28 27 26 25 24 23 23 22 21 22 24 25 26 25 24 24 25 25 25 25 25 25 25 24 24 23 23 24 24 24 23 22 21 21 20 19
51 51 50 50 50 50 50 49 49 49 48 48 47 47 46 46 45 44 44 43 42 41 40 39 38 38 37 37 38 41 42 43 43 40 38 40 40 39 37 35 33 32 33 34 34 34 33 34 33 31 31 29 28 27 26 25 24 23 23 22 22 24 26 27 27 26 25 25 26 26 25 25 25 25 24 24 25 24 24 25 24 23 22 21 21 21 20 18
53 53 52 51 51 51 51 51 50 50 50 50 49 49 49 48 47 47 46 46 45 44 42 41 40 39 38 37 37 38 40 42 42 39 38 40 40 40 38 36 35 34 34 35 34 34 34 34 33 32 31 30 29 28 27 25 24 23 23 23 25 27 29 29 28 27 26 26 26 26 25 25 25 24 24 24 24 24 25 24 22 21 22 22 22 21 20 17
55 55 54 54 53 52 52 51 51 51 51 51 51 50 50 50 50 49 49 48 47 46 45 44 43 42 40 39 38 38 38 40 40 39 39 40 41 41 39 37 36 35 35 35 34 34 35 34 34 33 31 30 29 28 27 25 24 23 23 25 27 30 30 29 28 27 27 26 26 25 25 25 24 23 23 24 24 24 24 23 21 21 23 23 23 22 19 16
57 56 56 55 55 54 53 53 52 52 52 52 52 52 52 52 52 51 51 50 49 48 47 46 45 44 43 41 40 39 38 39 39 39 40 40 41 41 40 38 38 37 36 35 35 35 35 35 35 33 31 30 29 28 26 24 23 23 25 27 30 31 30 29 29 28 27 26 25 26 25 24 23 23 23 24 23 23 23 22 21 22 23 24 24 23 19 16
58 57 57 56 56 56 55 54 54 53 53 53 53 53 53 53 53 53 53 52 52 51 50 49 48 47 45 44 42 41 40 39 38 39 40 41 42 42 41 39 39 38 36 36 35 35 36 36 35 33 32 31 29 28 26 25 24 25 27 30 32 31 30 30 29 28 27 26 26 26 25 23 23 23 23 22 21 21 21 20 21 23 24 24 25 23 20 17
58 58 58 57 57 57 57 56 56 55 55 54 54 54 54 54 54 55 54 54 53 52 52 51 50 48 47 46 45 43 41 39 39 39 40 41 42 43 41 40 40 39 37 37 36 36 36 36 35 34 33 31 30 29 28 26 26 27 29 31 31 31 31 30 29 29 27 26 26 25 23 22 22 22 22 21 19 19 19 19 21 23 24 25 25 23 21 17
56 57 57 58 58 58 58 57 57 57 57 56 55 55 55 55 55 55 55 55 54 54 53 52 52 50 49 48 47 45 42 39 40 41 40 41 42 42 42 41 40 40 39 38 37 37 37 37 36 35 34 32 32 31 30 29 28 28 29 31 31 32 32 31 30 28 27 27 25 23 23 22 22 22 21 20 20 20 20 20 22 24 25 25 25 23 20 16
54 55 56 57 58 58 58 59 59 58 58 58 57 57 56 56 56 56 57 56 55 55 54 54 53 51 51 50 48 46 42 40 42 42 40 40 42 42 42 41 41 41 40 39 38 37 37 37 37 36 35 34 33 33 32 31 30 29 30 31 32 32 32 30 29 28 27 26 24 23 22 22 22 21 20 22 23 23 22 23 25 26 26 26 25 22 18 15
53 54 54 56 56 57 58 59 59 59 59 59 59 58 58 58 58 58 58 57 56 56 55 55 54 53 52 51 50 46 42 42 44 43 41 42 43 43 43 42 42 41 41 40 39 38 39 39 39 37 36 35 35 34 33 33 31 31 33 33 33 32 31 30 29 29 28 26 25 23 22 23 21 19 23 26 25 25 25 25 26 27 27 26 23 20 17 16
51 52 53 54 55 56 57 58 59 59 60 60 60 60 60 59 59 59 59 58 57 56 56 55 54 54 52 52 51 46 43 44 45 44 43 43 44 44 43 42 42 42 41 40 40 40 40 41 40 39 38 37 36 35 35 34 32 33 34 33 33 32 31 31 30 29 27 26 25 22 22 22 18 20 27 27 26 26 24 24 26 27 27 25 21 18 16 17
49 50 52 53 54 55 55 56 57 58 59 60 60 60 60 60 60 60 59 58 57 57 56 55 55 54 53 53 49 45 45 46 46 45 44 44 44 44 43 42 42 42 41 41 41 41 41 41 41 40 40 38 37 37 37 36 34 34 34 34 33 32 32 31 29 27 26 26 24 21 22 20 18 24 29 27 26 25 22 22 25 26 25 22 18 17 17 19
46 47 49 50 52 53 54 55 56 56 57 58 58 59 59 59 59 59 59 58 58 57 56 56 55 54 54 52 47 46 48 47 46 45 44 43 43 43 43 42 42 42 41 41 42 42 41 41 41 42 41 40 39 39 39 37 35 35 34 34 33 33 33 30 27 27 26 25 22 22 22 19 21 28 28 27 26 23 20 22 23 24 23 19 18 18 18 19
44 45 46 48 49 51 52 53 54 55 55 56 56 57 57 58 58 58 58 58 57 57 56 56 55 54 54 50 45 48 49 47 45 44 43 43 43 44 44 43 43 43 43 43 43 42 42 41 42 42 42 41 41 40 40 38 35 35 35 34 34 33 32 28 27 27 26 25 23 24 22 20 26 29 29 27 24 22 21 20 21 20 20 18 17 18 18 19
44 44 46 47 48 49 50 51 52 53 54 55 55 56 57 57 57 57 57 57 56 56 56 56 55 54 53 48 45 48 49 46 44 44 44 44 44 45 45 45 45 45 45 44 44 44 43 42 42 42 42 42 42 41 40 38 35 35 35 35 34 33 30 28 28 28 28 27 26 27 23 21 28 30 29 27 23 22 21 19 19 19 18 18 18 18 19 19
44 45 46 47 48 49 50 51 52 53 54 54 55 56 56 56 56 56 56 56 56 55 55 55 54 53 51 47 46 48 48 44 43 45 45 46 46 46 47 46 46 46 46 46 45 45 44 43 42 43 43 43 42 42 41 38 36 35 35 35 34 32 29 28 30 30 29 29 29 29 23 22 29 30 29 27 23 21 19 18 19 18 19 19 19 20 20 20
43 44 46 47 48 49 49 50 51 52 52 53 53 54 54 54 55 55 55 55 55 54 54 53 52 52 49 47 46 47 47 44 45 47 47 47 47 48 48 48 48 48 47 47 46 46 46 45 44 43 43 42 42 42 41 38 36 35 35 35 33 31 29 30 33 33 31 30 31 29 22 22 29 30 28 26 22 19 17 19 19 20 22 21 22 22 21 22
40 41 42 44 44 45 46 47 47 48 48 49 50 51 51 51 52 53 53 53 53 53 53 52 50 50 47 45 45 47 47 46 47 48 48 48 49 49 49 49 49 49 49 48 47 47 47 46 45 44 43 42 42 42 41 38 36 35 36 35 32 31 31 33 35 35 33 32 31 28 23 25 30 30 27 23 21 19 19 21 22 22 23 23 23 23 23 23
36 36 37 38 39 40 40 41 41 42 42 43 44 45 46 47 48 50 51 51 51 51 50 49 47 46 45 44 45 47 46 46 47 48 48 48 48 49 49 49 49 50 50 49 48 48 48 47 46 44 42 42 42 42 41 39 37 35 35 34 32 32 33 35 36 35 34 33 31 28 26 28 31 30 26 23 21 22 23 24 24 24 24 24 23 24 25 24
31 31 32 32 33 33 33 33 34 34 35 36 38 39 41 43 44 46 47 47 46 46 46 46 45 44 43 44 46 46 45 46 47 48 48 48 47 48 48 49 49 50 50 49 48 48 47 46 45 43 42 42 42 42 41 40 37 34 34 33 33 32 33 36 36 35 35 34 32 29 28 29 30 29 26 25 24 24 25 25 25 25 25 24 24 25 25 24
26 26 26 26 26 26 26 26 26 27 28 30 31 33 36 37 38 40 41 40 40 41 42 42 42 42 42 44 45 46 46 46 46 47 47 47 47 48 48 49 49 50 49 49 48 48 47 46 44 42 42 42 42 40 39 38 35 34 33 33 33 31 30 34 36 37 36 34 32 30 29 30 30 29 28 28 27 26 27 27 26 26 25 25 26 26 25 24
21 20 19 19 19 19 19 19 20 21 23 25 27 29 30 31 31 33 34 35 36 37 38 39 39 39 40 42 43 44 44 44 44 44 45 46 46 47 47 47 48 48 48 48 48 48 47 45 44 43 42 42 40 39 38 37 36 35 34 34 33 30 29 33 36 37 36 32 30 29 29 30 30 31 31 30 29 29 29 28 26 26 25 26 27 27 26 24
14 14 14 13 14 14 14 14 16 18 20 22 23 24 25 25 26 28 30 31 32 35 35 36 37 36 38 40 41 42 41 40 40 41 43 44 43 43 44 44 45 46 47 47 48 48 47 46 45 43 41 40 39 39 38 38 37 37 37 36 34 30 31 34 35 36 35 31 30 29 29 30 31 32 31 31 30 30 29 28 26 26 27 28 28 27 25 24
9 10 10 11 12 12 12 13 15 18 19 19 19 19 20 22 24 26 28 29 31 32 33 34 35 36 38 39 41 41 39 37 37 38 41 42 41 40 40 41 43 44 45 45 46 47 46 44 43 41 39 38 39 40 40 40 39 39 40 38 34 31 33 35 35 36 34 31 30 30 30 32 33 33 32 32 31 30 29 27 27 27 28 28 27 26 24 23
9 9 10 11 12 12 13 13 15 17 17 17 17 18 19 21 24 25 27 29 30 31 33 34 34 35 37 40 40 39 37 36 36 36 38 38 38 38 37 38 40 42 43 44 45 47 45 42 40 38 37 37 39 41 41 41 41 42 42 38 33 32 34 35 36 37 35 32 31 32 32 34 35 34 33 32 32 31 29 28 29 29 27 25 24 24 23 22
10 11 11 12 12 13 14 14 15 15 15 17 18 20 21 22 23 25 27 29 30 31 32 33 33 33 36 37 36 36 35 34 34 35 36 36 35 35 35 36 38 39 41 43 45 45 43 40 38 37 37 38 40 41 40 40 41 41 40 36 32 32 33 35 37 37 36 34 33 33 34 34 35 35 33 32 31 30 30 30 31 29 24 21 20 21 21 20
13 13 13 12 13 14 15 15 16 16 17 18 19 21 22 22 23 24 26 28 28 29 30 31 31 31 32 33 32 33 33 32 33 35 35 35 34 34 34 34 35 36 39 41 44 43 40 38 37 37 38 39 40 40 39 38 39 38 35 32 30 31 33 35 37 38 36 35 34 34 35 35 35 35 33 32 31 31 33 32 29 27 23 19 18 19 19 19
15 14 14 14 15 16 17 17 17 18 20 19 18 22 24 23 23 23 26 27 25 27 29 29 30 29 31 32 31 30 29 29 32 34 34 34 33 34 35 34 33 33 36 38 40 38 35 35 36 36 37 38 39 37 36 37 36 33 30 31 31 32 34 36 38 37 36 35 35 36 36 36 36 35 34 32 32 33 34 32 28 26 24 20 19 19 19 19
17 16 15 15 16 18 20 20 19 18 20 19 21 24 25 24 23 23 26 26 23 26 29 28 29 30 30 31 31 30 28 28 30 29 31 33 33 34 34 33 33 34 36 36 35 32 31 33 34 35 36 36 35 35 35 35 33 29 30 33 34 35 36 38 39 38 36 36 36 37 37 36 36 35 34 33 34 34 33 31 28 26 24 22 20 20 19 19
18 18 17 17 18 21 22 21 20 18 19 21 23 24 25 24 24 25 27 24 22 24 28 28 29 30 31 30 30 30 29 30 30 28 29 31 32 34 33 32 33 35 37 38 35 32 32 34 35 35 35 34 33 34 34 33 31 30 32 34 35 37 38 39 40 39 37 37 37 38 37 36 36 34 33 34 35 34 32 31 29 27 24 22 20 19 19 20
19 19 19 19 20 23 23 21 19 18 19 22 23 24 25 25 26 28 26 23 23 23 26 29 31 31 32 29 28 29 30 31 32 30 32 33 32 33 34 34 35 36 38 39 36 34 34 35 35 34 34 33 33 33 33 33 33 33 34 35 36 38 40 41 42 40 39 38 37 38 37 37 36 34 34 34 34 34 32 30 29 28 25 21 19 19 19 20
20 19 19 20 21 23 23 20 18 19 20 22 23 25 26 26 28 28 25 23 24 23 24 29 33 32 32 30 26 26 28 30 32 33 34 34 34 34 34 34 35 37 38 37 35 35 35 35 34 33 32 33 33 32 32 33 34 35 35 36 37 38 40 42 41 40 39 38 38 38 38 38 37 36 35 35 34 34 32 31 30 28 24 22 21 23 23 23
19 19 19 20 21 22 21 19 19 20 21 23 24 26 28 28 27 26 25 24 24 23 22 27 32 32 31 31 26 24 26 27 30 33 33 33 33 33 33 34 34 34 34 33 32 33 34 34 34 33 33 33 33 33 32 33 34 34 35 35 36 37 38 38 37 37 37 38 39 38 38 39 39 38 37 37 36 34 33 32 31 28 26 24 25 25 25 25
18 19 19 21 22 21 20 20 21 22 24 24 25 27 29 28 25 25 25 25 25 25 22 22 28 30 30 29 26 25 28 28 27 29 30 31 32 31 32 33 33 33 32 30 29 31 32 33 33 32 32 33 32 32 33 33 34 34 34 35 36 37 36 35 35 36 37 38 40 40 40 40 40 39 39 38 36 34 33 33 32 30 28 27 26 23 20 21
18 19 21 22 21 20 21 22 23 25 26 26 26 27 26 24 23 25 25 24 25 26 22 20 24 28 29 27 26 26 28 28 28 28 28 29 29 29 30 31 31 32 31 30 29 30 30 31 31 31 31 31 31 32 32 33 34 35 36 37 37 38 37 36 36 37 39 40 41 41 41 41 40 40 40 38 36 34 33 33 32 31 29 28 27 25 21 18
19 20 21 21 19 21 23 25 26 28 27 26 26 24 23 23 23 24 25 24 25 26 23 21 24 27 28 28 28 27 26 25 26 26 26 27 26 26 27 27 28 29 29 29 29 29 29 30 30 30 30 30 30 31 31 32 33 35 37 37 37 36 35 34 35 37 39 40 41 41 41 40 39 39 39 38 37 35 34 33 32 32 31 29 28 28 25 21
20 21 20 19 21 24 26 27 28 28 26 25 23 22 23 25 24 24 24 24 26 27 24 25 27 27 28 28 28 28 27 25 24 23 23 24 26 26 26 26 26 27 27 26 26 27 28 28 29 29 29 30 30 31 32 32 33 34 35 34 34 34 33 33 34 36 37 38 38 39 39 38 39 38 38 37 37 36 36 35 33 33 31 28 26 27 26 23
20 20 20 21 25 27 28 29 28 26 25 23 22 23 25 24 24 25 24 25 27 26 26 29 29 28 28 28 27 27 26 25 25 24 23 25 26 27 27 27 27 27 26 26 27 28 28 27 28 29 29 30 31 32 33 34 34 33 31 30 31 32 32 33 34 34 35 35 35 36 36 37 37 37 37 37 36 36 36 36 34 33 31 27 25 25 23 22
20 20 21 24 27 28 28 27 26 25 23 23 23 25 26 24 24 25 25 26 26 25 28 30 29 29 28 26 26 25 25 24 25 25 25 26 26 26 27 28 27 27 27 27 28 29 29 29 30 30 30 30 32 33 35 35 35 33 32 31 31 30 29 30 30 31 31 31 32 34 34 34 33 34 35 35 35 34 34 34 34 32 29 27 25 24 23 22
20 22 24 26 28 28 27 26 25 24 23 24 25 27 26 25 25 24 24 25 24 26 31 31 30 31 29 27 26 25 25 25 25 25 26 25 25 25 26 26 27 28 28 29 30 30 31 31 31 32 32 32 33 34 35 36 35 34 34 34 33 31 30 30 29 30 30 29 30 31 32 31 29 30 32 32 33 33 32 33 32 30 28 26 24 23 22 22
22 24 25 28 28 28 27 26 24 23 24 26 27 28 28 25 24 23 24 25 23 27 30 29 30 31 30 29 27 25 26 27 27 27 26 25 25 24 25 25 26 28 30 31 31 31 32 32 32 33 33 33 34 34 35 35 35 34 34 33 32 32 31 30 30 31 30 29 29 30 29 28 28 28 29 30 31 32 31 32 31 29 27 25 24 23 21 21
24 25 27 28 28 28 27 26 25 24 25 27 28 30 29 23 22 25 25 25 24 27 29 27 27 29 30 30 28 26 27 27 28 28 26 25 25 23 23 24 25 28 30 30 31 31 32 33 33 34 34 34 35 35 35 35 35 34 32 31 31 31 31 30 29 30 29 28 28 28 28 27 27 27 29 30 30 30 31 31 30 27 25 23 22 22 21 20
25 26 28 28 28 28 27 27 27 26 27 28 30 32 29 22 23 27 27 26 27 28 28 27 26 27 28 30 29 28 28 28 28 28 27 25 24 23 22 23 24 26 28 29 30 31 33 34 35 35 35 36 36 36 36 35 35 33 32 31 30 30 30 29 28 28 28 28 27 27 27 27 25 25 26 28 29 30 30 30 27 24 22 21 20 19 19 19
26 27 27 27 27 27 27 27 27 26 28 30 32 33 29 22 25 29 28 28 29 30 28 28 27 26 26 29 30 29 29 29 29 29 27 25 24 24 23 22 23 25 26 26 27 29 31 34 36 36 36 38 38 38 37 36 35 34 32 32 31 30 29 29 28 28 28 29 28 27 27 26 24 23 23 23 24 26 26 25 22 20 19 19 19 19 19 18
27 26 25 24 25 27 27 28 28 28 29 30 32 33 28 23 27 31 30 30 31 31 30 28 27 26 26 29 29 29 29 29 29 28 27 25 24 25 24 23 23 23 24 24 25 26 28 31 34 35 36 38 39 39 38 36 35 34 32 32 32 31 30 29 28 29 29 29 30 29 28 28 25 23 22 21 20 22 22 20 18 17 17 17 18 19 19 18
27 26 24 24 25 27 28 30 31 30 29 30 32 34 29 25 28 31 31 31 30 30 30 28 26 25 25 27 28 28 29 29 29 28 27 26 25 25 25 24 23 23 22 21 21 22 24 28 32 34 34 36 37 37 36 35 33 32 32 32 31 31 32 30 29 29 29 29 31 30 30 29 26 23 22 21 21 21 20 17 17 17 16 15 16 16 16 16
27 25 24 23 25 27 29 31 31 29 30 32 33 34 30 26 28 31 31 32 31 30 30 29 26 24 23 24 26 27 28 28 28 27 27 27 26 25 25 25 25 24 22 20 20 20 22 25 29 32 33 34 35 35 35 34 33 32 32 32 31 31 31 31 30 29 29 29 30 30 30 29 27 24 23 22 22 22 19 18 18 18 16 15 15 14 14 15
27 22 21 22 24 25 28 30 30 29 31 32 32 34 31 26 27 32 33 33 31 29 29 27 25 23 22 23 24 26 27 28 27 25 26 26 26 25 23 23 23 23 21 21 21 20 22 24 26 29 32 33 34 34 34 33 33 33 33 33 33 32 31 30 30 30 29 28 28 29 30 29 27 26 24 23 23 23 20 18 19 19 17 17 17 16 16 16
26 20 18 20 21 24 27 29 28 29 30 31 31 34 31 26 28 32 33 32 30 27 26 25 22 20 21 22 23 24 25 26 26 24 23 23 23 22 21 20 20 19 18 19 19 19 20 23 25 27 30 32 33 33 34 34 33 34 34 34 34 32 31 30 30 31 32 30 29 29 29 29 28 27 26 25 25 24 21 19 19 20 20 19 19 19 18 17
26 22 20 20 20 23 27 28 29 30 31 32 33 34 30 26 28 32 32 30 28 26 24 23 20 18 18 21 23 23 24 24 24 23 22 22 22 21 21 19 18 17 16 16 17 17 17 20 23 26 27 28 30 32 33 34 34 34 34 35 34 34 33 32 32 32 32 32 32 30 29 29 29 28 28 28 27 25 23 21 20 21 22 22 22 22 21 18
27 24 22 21 21 24 28 31 32 33 34 34 35 35 29 24 27 31 32 30 27 25 23 21 20 20 20 21 23 24 24 25 25 25 24 24 24 23 23 22 21 20 19 18 17 17 16 17 20 23 24 26 27 29 31 33 34 34 34 34 35 35 34 33 32 32 32 32 33 32 32 31 31 30 29 28 28 27 25 22 21 22 22 21 21 22 22 20
26 23 21 22 23 26 30 33 34 34 36 35 33 33 29 24 25 28 28 28 27 24 22 21 20 20 22 24 26 26 26 26 26 27 27 26 26 25 25 24 24 23 22 21 20 18 18 17 17 19 21 23 25 28 30 31 33 35 35 34 34 34 34 34 33 33 32 32 32 33 33 33 32 32 32 30 29 29 26 23 22 22 21 20 21 23 23 23
Wind_Direction
258 257 256 256 255 255 255 255 256 257 257 258 258 259 259 259 259 259 259 258 258 257 256 256 255 253 252 251 250 249 248 248 247 247 248 248 247 247 248 249 249 247 244 240 237 234 230 228 226 225 226 227 227 228 230 232 234 235 236 236 234 233 235 238 239 240 242 243 245 247 248 250 252 253 254 255 255 256 257 259 261 261 260 258 257 259 262 265
259 258 257 256 255 255 254 254 255 255 256 257 257 258 258 258 258 258 258 258 258 259 259 258 257 256 254 253 251 249 248 247 246 246 247 248 247 247 246 248 248 245 243 239 236 234 230 228 227 225 226 227 226 228 230 231 232 233 233 233 230 231 234 236 237 238 239 242 244 246 248 250 252 254 255 256 256 256 257 257 256 256 256 256 257 258 261 264
259 259 258 257 256 255 255 254 254 254 255 255 256 257 258 258 258 258 258 258 258 258 259 260 259 258 256 255 253 251 249 247 245 245 247 248 247 247 245 245 246 244 242 240 236 234 231 229 228 227 226 227 227 228 230 231 231 230 231 230 228 231 234 234 235 236 238 240 243 245 248 251 253 255 256 258 259 260 260 259 257 255 255 255 256 257 260 262
258 258 258 257 257 256 255 255 255 254 254 254 255 255 256 257 257 257 257 257 257 258 259 259 260 259 258 257 256 254 251 248 245 244 246 247 246 246 245 243 244 244 242 240 237 235 232 230 228 227 226 226 227 228 230 230 230 230 228 226 228 232 235 234 235 236 238 240 243 246 247 248 251 254 256 258 261 263 265 265 260 254 252 253 255 258 259 261
258 257 257 257 257 256 256 255 255 255 254 254 254 255 255 255 256 256 256 256 257 257 257 258 258 258 258 257 257 256 254 250 246 244 244 244 245 246 245 243 243 243 243 241 238 235 233 231 228 227 225 225 226 227 229 229 230 229 224 225 229 233 234 235 235 237 239 240 242 244 245 247 249 252 254 257 261 265 268 266 258 250 250 251 254 257 260 261
259 257 257 256 256 256 256 256 256 255 255 254 254 254 254 254 254 254 255 255 256 257 257 257 256 256 256 256 257 256 255 253 249 245 243 242 243 244 244 243 242 243 243 242 239 236 234 232 230 227 225 224 223 224 225 225 226 226 223 226 231 233 235 236 236 237 239 240 241 243 246 248 250 251 253 256 261 268 269 264 254 249 249 250 252 256 259 260
260 258 257 256 256 255 255 255 255 256 255 255 254 254 254 253 253 254 254 254 255 255 256 256 256 256 255 255 255 255 255 254 251 247 243 241 242 243 243 242 242 242 243 242 240 237 235 233 230 227 225 223 222 220 220 221 222 223 224 227 231 232 234 235 236 238 239 240 241 244 247 248 250 252 254 257 262 267 266 258 250 247 248 249 250 253 257 260
260 259 257 256 256 255 254 254 254 255 255 255 255 254 254 253 253 253 253 254 254 254 255 255 255 255 255 254 253 253 254 253 252 249 244 242 242 243 242 241 241 241 241 241 240 237 235 233 231 228 225 223 222 220 219 221 220 220 224 227 230 232 232 233 236 238 239 241 243 245 246 247 249 251 254 259 263 263 257 249 243 242 244 247 249 253 258 261
260 258 257 256 256 255 255 254 254 254 254 255 254 255 254 254 254 253 253 254 254 254 254 254 254 254 254 254 253 252 252 251 251 251 246 242 241 242 242 241 240 240 240 240 240 238 236 234 232 229 226 224 222 220 220 222 219 216 220 225 228 230 232 234 237 238 240 241 242 243 243 245 246 249 255 258 257 254 249 245 241 241 243 245 248 254 259 261
261 259 258 257 256 255 255 254 254 254 254 254 254 254 254 254 254 254 254 254 254 254 254 254 254 254 254 253 253 252 251 250 251 250 246 242 240 240 241 240 239 238 239 239 239 238 236 234 232 229 226 224 222 221 222 223 218 215 220 225 228 230 233 235 236 237 239 240 240 240 240 242 243 248 253 253 250 247 247 245 243 243 243 245 248 254 257 256
262 260 259 258 256 255 254 254 254 254 254 254 254 254 254 254 254 254 254 254 254 254 254 254 254 254 253 252 253 252 250 249 249 248 246 242 239 238 240 240 238 237 237 238 238 237 235 234 232 230 227 225 223 223 224 223 218 217 223 227 229 230 233 235 236 237 238 239 239 238 239 241 239 244 247 247 247 247 246 245 245 245 245 247 250 251 249 249
262 261 260 258 257 256 255 254 254 253 253 254 254 254 254 254 254 253 254 254 254 254 254 253 253 253 253 253 253 251 249 249 249 248 246 243 240 238 239 241 240 238 237 237 237 236 235 235 233 231 229 226 225 223 224 222 218 218 223 227 228 230 232 234 235 236 238 238 238 237 238 237 236 241 242 241 245 247 244 241 242 243 246 249 249 246 244 247
263 261 260 259 258 257 256 255 254 254 253 253 253 253 253 253 253 253 252 253 252 253 253 252 253 253 253 253 251 250 249 249 248 247 245 244 241 238 238 240 239 238 236 236 236 236 236 235 233 232 229 227 225 224 224 222 217 218 222 225 227 228 231 233 234 236 237 237 236 235 235 232 236 239 237 239 244 244 240 236 237 241 244 246 244 243 244 250
264 263 261 259 258 257 256 256 255 254 254 253 253 252 252 252 252 252 252 252 251 251 251 252 252 252 252 251 248 249 249 247 246 245 242 241 240 237 237 237 237 235 234 233 233 234 234 234 233 232 230 227 226 224 224 222 218 218 221 224 227 228 229 230 233 234 234 234 231 231 230 228 237 237 233 238 242 238 234 232 235 239 241 241 239 242 246 253
264 263 261 260 258 257 256 255 255 254 253 253 252 251 251 251 251 250 250 250 250 250 250 251 251 251 251 248 244 247 248 245 242 240 239 238 237 235 235 235 234 234 232 231 231 231 232 232 232 232 230 228 226 224 224 222 218 218 221 224 226 227 226 227 231 231 231 230 228 229 224 225 237 237 235 239 239 236 232 229 232 235 236 236 236 239 244 252
264 262 261 259 257 256 255 254 253 253 252 251 250 250 250 250 249 248 248 248 248 248 248 248 248 249 248 243 241 244 244 240 236 236 236 235 234 233 233 233 233 232 231 230 230 230 230 230 230 230 229 228 227 225 224 221 217 217 221 223 223 224 222 224 229 229 228 228 227 226 219 222 234 235 235 238 238 236 231 228 230 231 233 235 237 241 246 253
264 262 260 258 256 255 253 252 252 251 250 250 249 249 249 248 247 246 246 246 246 245 246 245 245 245 243 240 239 239 238 234 232 233 232 231 231 231 231 232 231 231 231 230 229 228 228 228 228 229 229 227 227 226 225 222 218 217 219 220 220 220 219 221 226 227 226 226 228 225 214 221 233 233 234 237 236 236 233 231 229 231 234 237 241 246 251 257
265 262 260 258 256 254 253 252 251 250 249 248 248 248 247 246 245 245 244 244 244 243 243 242 241 241 238 236 234 233 233 231 230 230 229 229 229 229 230 230 230 229 229 229 228 227 227 227 227 227 228 227 227 227 226 224 219 216 217 217 217 217 217 221 225 226 225 226 229 226 215 223 233 233 234 234 233 234 234 233 231 231 236 240 245 250 255 258
268 264 261 258 256 254 253 251 250 249 248 247 247 246 245 244 243 243 242 242 241 239 238 237 236 235 232 230 229 230 230 229 228 228 228 228 228 229 230 230 229 229 228 228 227 226 226 226 226 226 227 227 227 227 226 224 219 213 214 215 215 215 217 221 225 226 226 227 229 225 219 225 232 233 233 231 229 231 233 235 235 236 238 243 249 255 259 262
269 265 261 258 255 253 251 249 248 247 246 245 245 244 243 242 241 240 240 239 237 234 233 232 230 228 227 225 225 225 225 226 227 227 226 226 226 228 229 230 230 229 228 227 226 226 226 226 226 225 226 227 226 226 226 224 219 213 211 212 213 214 218 222 225 226 227 228 228 225 224 227 231 233 232 229 228 229 231 235 239 242 246 251 256 260 263 265
269 264 261 257 254 251 248 246 245 243 243 242 241 241 241 240 238 238 237 235 232 230 230 228 225 224 224 223 223 223 222 223 225 225 226 225 224 226 227 228 228 228 228 226 225 224 225 225 223 222 223 225 225 225 226 224 219 214 211 210 210 212 217 222 224 226 227 227 227 225 225 226 229 230 229 229 229 230 233 236 240 245 251 257 261 263 264 264
267 262 257 252 248 246 244 241 239 239 239 239 238 238 238 237 235 234 233 230 228 227 226 225 222 220 222 223 223 222 221 222 223 224 225 224 224 224 225 226 227 227 226 226 225 224 223 222 221 220 220 221 221 221 223 222 217 213 210 208 208 207 212 219 223 226 226 225 225 223 220 222 225 227 229 231 232 234 236 239 243 250 256 260 262 263 262 262
262 256 250 244 240 238 236 233 232 234 236 237 238 238 237 235 232 231 230 225 224 223 222 221 219 217 219 220 220 220 220 221 221 222 223 223 223 223 224 225 226 225 224 224 225 223 221 220 220 219 219 218 217 217 218 217 215 211 208 207 205 202 207 215 221 225 225 222 221 219 215 217 221 225 230 235 236 237 240 244 249 256 260 262 261 260 260 262
248 238 236 234 231 227 222 223 229 232 234 236 237 236 234 232 230 228 227 222 219 218 216 215 214 212 214 215 216 216 215 215 216 219 221 220 219 219 220 222 223 224 223 222 223 222 220 219 218 218 217 216 215 215 214 213 211 210 208 206 203 199 204 213 220 225 225 221 220 218 211 211 217 224 230 235 237 241 245 251 256 260 261 259 260 261 262 264
231 224 226 229 228 221 218 226 233 234 235 234 232 231 228 225 224 222 221 218 215 212 211 210 209 207 209 212 212 211 211 211 211 213 217 217 216 215 216 218 220 222 222 220 220 219 218 217 217 216 214 213 213 214 214 211 209 209 209 207 204 202 205 213 220 225 226 222 220 219 212 210 217 225 231 235 239 244 249 256 261 263 259 256 259 263 265 267
223 224 227 229 225 220 223 233 239 238 234 231 232 230 222 216 214 213 215 214 210 208 206 204 202 203 208 210 211 210 209 209 207 208 211 212 210 209 211 214 217 219 220 219 219 217 215 215 214 213 212 212 211 213 214 212 210 211 211 208 206 206 208 213 219 223 225 222 219 220 216 215 221 228 233 236 240 245 251 256 261 261 256 252 257 263 267 270
218 224 228 227 223 223 229 238 243 240 234 232 231 225 215 209 208 209 212 211 206 204 203 199 199 202 207 208 207 208 208 207 205 205 207 209 207 205 207 210 213 216 217 217 217 216 213 213 212 210 210 210 211 212 213 212 213 214 213 210 207 208 210 214 219 221 223 222 220 220 220 219 224 231 236 239 243 248 253 256 256 256 253 249 252 259 267 272
218 225 230 229 226 229 235 240 242 239 235 230 224 215 206 204 206 205 208 207 201 200 198 195 196 199 204 205 203 203 203 204 205 203 202 203 204 204 206 206 208 213 215 216 216 213 211 212 211 210 209 210 211 213 213 213 214 215 213 209 206 207 209 212 217 219 221 222 222 223 223 222 225 231 237 242 247 251 255 257 253 251 252 251 255 262 267 272
221 226 231 233 231 232 236 240 240 238 232 223 216 209 201 201 203 202 204 203 196 196 196 194 195 198 203 204 201 197 194 197 200 199 199 199 200 203 204 204 204 207 209 211 211 208 207 209 208 208 208 209 212 214 215 214 214 212 209 207 204 205 208 211 214 217 220 222 224 226 227 226 228 232 238 244 249 252 255 257 255 252 253 255 261 269 274 279
226 230 234 237 235 233 235 236 236 233 223 215 211 206 200 200 202 202 202 199 194 194 195 196 197 199 203 203 199 194 191 193 194 192 196 198 199 201 201 201 203 205 205 205 203 201 204 206 205 204 206 207 210 212 212 212 211 210 209 208 205 204 207 210 213 217 220 222 225 227 230 231 232 236 242 246 250 253 254 256 257 258 257 259 265 271 275 280
232 235 237 238 234 232 230 229 229 225 213 207 207 204 201 202 203 202 198 194 195 196 194 197 200 201 202 200 196 193 190 192 193 191 194 196 197 200 200 199 200 201 203 202 199 198 202 206 205 203 204 206 208 209 210 210 210 210 209 209 206 205 207 210 213 216 220 223 225 227 231 235 237 241 245 248 250 252 253 255 257 260 261 263 270 273 273 276
236 238 237 234 230 227 225 223 220 214 203 199 200 200 202 204 204 200 195 193 197 198 196 199 202 202 199 193 190 192 193 193 193 193 195 196 197 199 200 201 201 201 201 200 198 199 202 205 205 204 205 207 207 208 209 211 212 211 211 211 210 208 208 211 214 218 222 226 227 228 231 237 242 245 245 246 248 251 253 254 255 258 262 266 273 275 273 271
237 236 231 227 223 220 220 217 209 201 195 195 196 197 200 204 202 194 193 197 198 198 198 200 202 199 192 186 183 188 193 195 195 196 196 197 197 198 198 200 202 204 204 203 202 202 203 205 205 205 208 209 210 211 212 213 215 216 216 216 216 215 214 215 218 223 228 230 232 233 234 239 244 246 246 247 248 250 252 253 255 259 263 269 276 279 273 265
233 228 223 221 218 215 214 208 199 192 192 196 197 197 199 199 195 188 192 200 201 200 199 198 197 190 182 182 182 185 191 192 194 199 199 199 199 197 197 199 202 204 205 205 206 207 207 209 208 208 210 212 214 216 217 217 219 221 222 223 224 224 223 222 223 227 231 233 235 236 236 239 243 245 247 248 249 250 251 254 258 262 265 271 274 275 273 263
225 221 219 220 216 210 206 199 193 191 193 196 197 199 197 190 189 189 192 200 202 200 198 193 190 182 175 179 183 187 192 191 191 195 198 201 201 199 199 201 202 204 204 203 205 207 210 213 213 212 213 214 216 219 219 220 221 222 224 226 228 230 228 225 225 228 231 233 235 237 237 240 242 244 247 249 250 252 253 255 260 263 267 272 269 268 272 265
220 219 221 219 210 203 199 193 193 194 195 195 194 194 187 183 188 190 193 200 199 197 195 182 178 177 173 178 184 187 191 193 193 194 195 198 201 202 203 204 206 208 207 205 205 206 209 213 215 214 215 215 216 217 218 220 220 222 226 229 230 230 229 227 227 229 232 234 236 238 239 240 242 244 246 248 250 252 254 257 261 264 268 271 266 263 267 266
219 220 220 212 200 196 194 192 193 195 194 193 188 183 179 183 187 186 193 199 192 191 187 172 170 174 175 179 184 185 187 189 191 192 195 197 199 199 200 202 206 208 209 207 206 207 209 212 215 214 214 214 214 214 216 218 219 222 227 229 227 227 227 226 226 228 230 233 235 238 239 240 242 244 245 247 250 252 255 258 261 264 266 266 262 260 262 263
219 217 212 202 194 192 191 191 192 192 191 187 181 178 178 183 185 182 189 193 186 185 179 167 167 172 176 181 184 184 186 187 187 188 192 196 198 200 200 200 202 204 207 205 204 206 206 208 212 213 211 211 211 213 215 217 219 220 223 224 224 225 227 227 227 228 229 230 233 236 237 238 241 243 245 247 249 251 254 257 259 261 260 258 257 257 257 259
215 210 202 196 192 191 190 190 189 188 185 180 176 178 178 180 180 180 187 190 183 178 173 167 169 173 175 180 183 183 183 183 185 187 191 194 195 200 203 204 203 203 204 204 203 202 201 203 208 209 207 207 209 211 214 217 218 216 217 219 221 223 225 227 229 229 229 230 231 233 235 236 239 242 245 247 248 250 252 254 255 255 255 255 256 255 254 256
207 201 196 192 190 188 188 187 184 181 178 175 176 179 176 174 177 180 188 190 180 170 167 166 170 176 177 178 180 181 179 178 182 186 191 192 193 199 204 206 207 205 205 205 203 200 198 200 205 206 204 204 207 210 212 216 217 215 215 217 219 219 219 221 225 226 227 228 230 233 235 236 237 240 243 244 245 247 249 250 251 251 252 254 254 254 254 253
199 195 192 190 187 186 186 184 179 175 174 174 176 178 172 170 180 187 191 190 177 166 165 164 170 177 179 178 178 179 179 179 180 184 189 191 192 199 202 204 207 207 207 206 204 200 198 198 201 204 202 201 204 208 211 213 215 216 217 219 221 221 218 218 223 225 226 227 229 231 235 236 236 238 240 241 242 245 247 248 249 251 251 252 253 254 254 253
192 190 189 187 185 184 182 179 175 172 174 175 177 176 168 168 187 193 191 188 174 163 164 166 170 178 181 180 180 181 183 184 183 184 188 190 193 198 201 202 205 208 209 207 203 200 196 195 199 203 202 200 202 206 209 211 214 217 218 218 221 224 221 218 223 228 229 231 232 232 234 235 235 235 236 237 239 241 244 247 250 252 253 254 255 255 254 255
187 186 187 186 185 182 178 174 172 171 173 176 178 175 168 171 189 192 190 187 172 162 165 169 172 178 181 182 184 185 188 188 186 187 189 190 192 195 198 202 204 208 210 207 203 200 195 194 200 203 202 200 201 204 207 209 212 216 219 218 218 222 224 223 224 228 231 233 235 236 238 238 238 239 238 238 239 240 243 247 251 253 256 257 256 256 255 256
184 184 185 185 183 180 176 174 174 173 176 180 180 175 171 178 188 190 190 185 173 166 169 173 176 178 180 182 184 187 190 190 189 190 189 190 193 194 196 200 201 204 208 206 205 203 198 198 202 204 202 201 202 204 206 207 208 211 216 220 218 218 222 226 226 227 230 232 233 234 237 239 238 240 242 242 244 245 246 249 251 254 256 255 254 254 255 256
183 182 181 182 182 180 178 176 175 177 179 183 181 176 177 185 189 188 188 183 175 171 173 178 181 180 180 183 185 188 192 191 191 192 191 191 194 195 197 198 197 199 202 203 205 205 202 202 205 208 207 206 207 207 206 206 208 210 213 218 219 219 220 224 227 228 229 232 234 233 234 237 236 238 243 245 246 246 246 248 249 250 250 250 250 251 253 255
181 180 180 182 182 182 182 178 176 179 182 185 182 178 183 192 190 186 184 181 179 178 176 179 184 185 184 186 188 191 193 192 193 196 197 197 198 198 199 198 197 197 198 200 203 205 205 205 208 210 211 211 211 211 211 210 210 214 217 219 220 221 223 225 228 230 230 231 234 235 235 238 239 241 245 247 247 247 246 244 244 242 243 247 251 253 254 257
175 177 180 183 183 185 184 180 178 182 186 187 182 180 187 196 190 184 183 183 184 185 181 180 184 189 189 189 190 193 196 196 197 199 202 204 204 204 204 203 201 199 198 197 200 205 206 208 211 211 211 211 213 214 215 214 213 216 220 223 225 227 229 230 229 230 232 231 233 236 237 239 241 242 245 248 249 250 248 243 241 239 240 247 253 254 256 259
168 174 181 184 186 189 188 184 184 188 189 187 182 183 189 194 190 186 184 183 185 188 188 187 188 193 195 195 194 195 197 199 201 202 204 206 208 209 210 209 207 206 205 202 204 208 206 206 211 213 212 213 214 216 218 217 215 216 218 222 226 229 232 234 232 233 237 237 237 239 240 240 240 241 244 248 250 252 250 244 240 239 241 248 252 253 254 258
162 171 182 188 191 192 191 189 189 191 190 186 183 186 191 193 192 190 186 183 186 191 195 196 196 198 202 202 201 200 200 201 204 207 208 210 212 214 215 215 212 212 212 210 212 215 210 206 208 211 213 214 216 218 221 223 223 222 221 223 225 226 229 231 233 236 240 242 243 243 243 243 242 241 244 248 250 252 254 251 245 243 244 248 251 251 252 253
159 170 185 195 196 192 189 188 190 191 188 183 182 186 191 194 194 193 191 190 191 194 199 202 204 206 209 208 207 207 207 207 209 212 215 217 220 223 224 223 220 219 218 216 216 217 215 214 212 212 213 216 218 220 224 226 229 229 229 229 229 230 231 232 234 236 239 243 244 245 245 245 245 245 246 248 250 252 256 257 253 250 249 250 251 250 249 248
160 171 187 196 193 187 186 186 189 190 186 181 181 185 189 193 193 193 196 198 198 198 203 210 215 217 217 215 212 212 213 214 216 218 220 222 224 227 229 229 228 227 226 224 222 218 216 217 217 216 218 221 223 224 226 227 230 232 233 233 234 235 236 238 239 240 242 244 243 243 245 247 248 249 249 249 250 251 255 258 255 253 252 252 252 250 246 242
162 171 184 189 186 185 185 186 188 188 184 178 178 183 187 190 191 191 193 197 201 206 213 220 224 223 221 218 216 217 218 221 224 227 228 228 227 229 231 231 231 232 232 232 231 227 223 223 225 225 227 230 232 232 231 230 230 232 233 235 237 238 239 240 241 242 244 245 243 243 245 248 250 251 250 250 249 249 252 254 254 253 253 253 254 250 243 240